Flag for U.S.A. Weather past 2 weeks in St. Augustine, Florida, U.S.A.

Now
75 °F

Clear.


Feels Like: 73 °F
Forecast: 73 / 90 °F
Wind: 7 mph from Southwest

Location: St. Augustine Airport

Current Time: Jul 2, 2015 at 11:35:41 PM

Latest Report: Jul 2, 2015 at 10:58 PM


Visibility: 10 mi

Pressure: 30.10 "Hg

Humidity: 94%

Dew point: 73 °F

Location of St. AugustineLocation

Historic Weather in St. Augustine — Graph

°F

St. Augustine temperature yesterday

Maximum temperature yesterday: 93 °F (at 3:57 PM)
Minimum temperature yesterday: 71 °F (at 3:58 AM)
Average temperature yesterday: 81 °F

Past Weeks' High & Low Weather Summary

 TemperatureHumidityPressure
High94 °F (Jun 19, 2:58 PM)97% (Jun 23, 5:58 AM)30.19 "Hg (Jun 23, 5:58 AM)
Low71 °F (Jul 1, 3:58 AM)47% (Jun 22, 11:58 AM)29.96 "Hg (Jun 27, 5:58 PM)
Average81 °F79%30.08 "Hg
* Reported Jun 17 9:58 PM — Jul 2 9:58 PM, St. Augustine, Weather by CustomWeather, © 2015

Note: Actual official high and low records may vary slightly from our data, if they occured in-between our weather recording intervals... More about our weather records

Advertising

St. Augustine weather history for previous 24 hours

 ConditionsComfort  
Time TempWeatherWind HumidityBarometerVisibility
9:58 PM
Thu, Jul 2
75 °FClear.6 mph94%30.09 "Hg10 mi
8:58 PM75 °FSunny.6 mph90%30.09 "Hg10 mi
7:58 PM77 °FSunny.3 mph85%30.08 "Hg10 mi
6:58 PM77 °FSunny.7 mph85%30.08 "Hg10 mi
5:58 PM77 °FSunny.10 mph82%30.07 "Hg10 mi
4:58 PM74 °FLight rain. Mostly cloudy.7 mph91%30.07 "Hg10 mi
3:58 PM75 °FLight rain. Broken clouds.8 mph85%30.09 "Hg10 mi
3:02 PM75 °FLight rain. Mostly cloudy.10 mph83%30.09 "Hg10 mi
2:02 PM79 °FThundershowers. Sunny.8 mph79%30.08 "Hg10 mi
12:58 PM91 °FThundershowers. Broken clouds.10 mph54%30.09 "Hg10 mi
11:58 AM88 °FScattered clouds.9 mph63%30.10 "Hg10 mi
10:58 AM87 °FScattered clouds.10 mph67%30.10 "Hg10 mi
9:58 AM85 °FPartly sunny.8 mph75%30.11 "Hg10 mi
8:58 AM81 °FSunny.8 mph82%30.11 "Hg10 mi
7:58 AM77 °FSunny.7 mph90%30.09 "Hg10 mi
6:58 AM74 °FClear.7 mph97%30.09 "Hg9 mi
5:58 AM74 °FClear.5 mph97%30.07 "Hg10 mi
4:58 AM75 °FClear.6 mph94%30.06 "Hg10 mi
3:58 AM76 °FClear.3 mph94%30.05 "Hg10 mi
2:58 AM77 °FClear.3 mph90%30.07 "Hg10 mi
1:58 AM79 °FClear.8 mph84%30.08 "Hg10 mi
12:58 AM78 °FClear.7 mph87%30.11 "Hg10 mi
11:58 PM
Wed, Jul 1
79 °FClear.3 mph82%30.12 "Hg10 mi
Weather by CustomWeather, © 2015

See weather overviewHow to use our weather pages